TimeCST,TemperatureF,Dew PointF,Humidity,Sea Level PressureIn,VisibilityMPH,Wind Direction,Wind SpeedMPH,Gust SpeedMPH,PrecipitationIn,Events,Conditions,WindDirDegrees,DateUTC
12:15 AM,37.4,26.6,65,29.71,10.0,SE,13.8,-,N/A,,Clear,140,2013-02-18 06:15:00
12:55 AM,37.4,26.6,65,29.69,10.0,SSE,13.8,-,N/A,,Clear,150,2013-02-18 06:55:00
1:15 AM,37.4,26.6,65,29.68,10.0,SSE,12.7,17.3,N/A,,Clear,150,2013-02-18 07:15:00
1:35 AM,37.4,26.6,65,29.68,10.0,SSE,12.7,-,N/A,,Clear,160,2013-02-18 07:35:00
1:55 AM,37.4,26.6,65,29.67,10.0,SSE,12.7,-,N/A,,Clear,160,2013-02-18 07:55:00
2:15 AM,37.4,26.6,65,29.66,10.0,SSE,12.7,-,N/A,,Clear,160,2013-02-18 08:15:00
2:35 AM,37.4,28.4,70,29.65,10.0,SSE,11.5,-,N/A,,Clear,150,2013-02-18 08:35:00
2:55 AM,37.4,28.4,70,29.64,10.0,SSE,10.4,-,N/A,,Clear,150,2013-02-18 08:55:00
3:15 AM,37.4,28.4,70,29.63,10.0,SSE,11.5,-,N/A,,Clear,150,2013-02-18 09:15:00
3:35 AM,37.4,28.4,70,29.62,10.0,SSE,11.5,-,N/A,,Clear,150,2013-02-18 09:35:00
3:55 AM,37.4,28.4,70,29.61,10.0,SSE,11.5,-,N/A,,Clear,160,2013-02-18 09:55:00
4:15 AM,37.4,28.4,70,29.61,10.0,SSE,10.4,-,N/A,,Clear,160,2013-02-18 10:15:00
4:35 AM,37.4,28.4,70,29.60,10.0,SSE,8.1,-,N/A,,Clear,160,2013-02-18 10:35:00
4:55 AM,37.4,28.4,70,29.60,10.0,SSE,8.1,-,N/A,,Clear,160,2013-02-18 10:55:00
5:15 AM,39.2,30.2,70,29.60,10.0,South,11.5,-,N/A,,Clear,170,2013-02-18 11:15:00
5:35 AM,42.8,32.0,66,29.60,10.0,South,12.7,-,N/A,,Clear,180,2013-02-18 11:35:00
5:55 AM,42.8,32.0,66,29.59,10.0,South,13.8,-,N/A,,Clear,170,2013-02-18 11:55:00
6:15 AM,42.8,32.0,66,29.58,10.0,South,12.7,-,N/A,,Clear,170,2013-02-18 12:15:00
7:15 AM,42.8,32.0,66,29.58,10.0,South,11.5,-,N/A,,Clear,180,2013-02-18 13:15:00
7:35 AM,44.6,32.0,61,29.58,10.0,South,12.7,-,N/A,,Clear,180,2013-02-18 13:35:00
7:55 AM,44.6,32.0,61,29.58,10.0,South,13.8,-,N/A,,Clear,180,2013-02-18 13:55:00
8:35 AM,46.4,33.8,62,29.59,10.0,South,15.0,20.7,N/A,,Partly Cloudy,190,2013-02-18 14:35:00
8:55 AM,46.4,33.8,62,29.58,10.0,South,18.4,21.9,N/A,,Clear,190,2013-02-18 14:55:00
9:15 AM,50.0,35.6,58,29.57,10.0,South,16.1,19.6,N/A,,Clear,190,2013-02-18 15:15:00
9:35 AM,50.0,37.4,62,29.57,10.0,South,18.4,24.2,N/A,,Scattered Clouds,190,2013-02-18 15:35:00
9:55 AM,50.0,37.4,62,29.57,10.0,South,20.7,-,N/A,,Mostly Cloudy,190,2013-02-18 15:55:00
10:15 AM,50.0,37.4,62,29.56,10.0,South,18.4,-,N/A,,Mostly Cloudy,190,2013-02-18 16:15:00
10:35 AM,50.0,37.4,62,29.57,10.0,SSW,13.8,-,N/A,,Mostly Cloudy,200,2013-02-18 16:35:00
10:55 AM,48.2,37.4,66,29.58,10.0,West,11.5,-,N/A,,Overcast,260,2013-02-18 16:55:00
11:15 AM,42.8,37.4,81,29.59,10.0,WNW,10.4,17.3,N/A,Rain,Light Rain,300,2013-02-18 17:15:00
11:35 AM,41.0,37.4,87,29.59,10.0,NW,10.4,-,N/A,Rain,Light Rain,310,2013-02-18 17:35:00
11:55 AM,41.0,37.4,87,29.58,10.0,NW,12.7,-,N/A,Rain,Light Rain,310,2013-02-18 17:55:00
12:15 PM,39.2,35.6,87,29.58,10.0,NW,18.4,-,N/A,Rain,Light Rain,310,2013-02-18 18:15:00
12:35 PM,37.4,35.6,93,29.59,10.0,NW,15.0,-,N/A,Rain,Light Rain,320,2013-02-18 18:35:00
12:55 PM,37.4,35.6,93,29.59,10.0,NW,17.3,23.0,N/A,Rain,Light Rain,320,2013-02-18 18:55:00
1:15 PM,37.4,37.4,100,29.58,10.0,NW,16.1,-,N/A,Rain,Light Rain,320,2013-02-18 19:15:00
1:35 PM,39.2,37.4,93,29.58,9.0,NW,18.4,24.2,N/A,Rain,Light Rain,320,2013-02-18 19:35:00
1:55 PM,37.4,37.4,100,29.59,8.0,NW,18.4,27.6,N/A,Rain,Light Rain,310,2013-02-18 19:55:00
2:15 PM,37.4,35.6,93,29.60,6.0,NW,23.0,31.1,N/A,Rain,Light Rain,320,2013-02-18 20:15:00
2:35 PM,35.6,35.6,100,29.60,10.0,NW,17.3,24.2,N/A,Rain,Light Rain,320,2013-02-18 20:35:00
2:55 PM,35.6,35.6,100,29.61,5.0,NNW,18.4,-,N/A,Rain,Light Rain,330,2013-02-18 20:55:00
3:35 PM,35.6,35.6,100,29.63,10.0,NW,27.6,34.5,N/A,,Overcast,310,2013-02-18 21:35:00
3:55 PM,32.0,32.0,100,29.66,10.0,NW,28.8,34.5,N/A,,Overcast,310,2013-02-18 21:55:00
4:15 PM,32.0,28.4,87,29.68,10.0,NW,24.2,36.8,N/A,,Overcast,320,2013-02-18 22:15:00
4:35 PM,32.0,28.4,87,29.69,10.0,NNW,23.0,32.2,N/A,,Overcast,330,2013-02-18 22:35:00
5:15 PM,30.2,26.6,86,29.72,10.0,NW,26.5,32.2,N/A,,Overcast,310,2013-02-18 23:15:00
5:35 PM,30.2,24.8,80,29.74,10.0,NW,23.0,34.5,N/A,,Overcast,310,2013-02-18 23:35:00
5:55 PM,30.2,23.0,75,29.75,10.0,NW,21.9,33.4,N/A,,Overcast,310,2013-02-18 23:55:00
6:15 PM,28.4,23.0,80,29.77,10.0,NW,25.3,33.4,N/A,,Overcast,310,2013-02-19 00:15:00
6:55 PM,28.4,21.2,74,29.80,10.0,NW,18.4,31.1,N/A,,Overcast,310,2013-02-19 00:55:00
7:15 PM,28.4,19.4,69,29.81,10.0,NW,23.0,35.7,N/A,,Mostly Cloudy,310,2013-02-19 01:15:00
7:35 PM,26.6,19.4,74,29.82,10.0,NW,23.0,32.2,N/A,,Partly Cloudy,310,2013-02-19 01:35:00
7:55 PM,26.6,17.6,69,29.83,10.0,NW,28.8,38.0,N/A,,Partly Cloudy,310,2013-02-19 01:55:00
8:15 PM,26.6,17.6,69,29.84,10.0,NW,25.3,39.1,N/A,,Clear,310,2013-02-19 02:15:00
8:35 PM,24.8,15.8,69,29.85,10.0,WNW,28.8,36.8,N/A,,Clear,300,2013-02-19 02:35:00
8:55 PM,24.8,15.8,69,29.86,10.0,NW,27.6,35.7,N/A,,Scattered Clouds,310,2013-02-19 02:55:00
9:15 PM,24.8,15.8,69,29.87,10.0,WNW,21.9,-,N/A,,Partly Cloudy,290,2013-02-19 03:15:00
9:35 PM,24.8,14.0,64,29.87,10.0,WNW,29.9,42.6,N/A,,Clear,290,2013-02-19 03:35:00
9:55 PM,23.0,14.0,68,29.88,10.0,NW,19.6,29.9,N/A,,Clear,310,2013-02-19 03:55:00
10:15 PM,23.0,14.0,68,29.89,10.0,WNW,13.8,-,N/A,,Clear,290,2013-02-19 04:15:00
10:35 PM,23.0,15.8,74,29.90,10.0,WNW,21.9,-,N/A,,Mostly Cloudy,290,2013-02-19 04:35:00
10:55 PM,23.0,14.0,68,29.90,10.0,WNW,19.6,28.8,N/A,,Mostly Cloudy,290,2013-02-19 04:55:00
11:15 PM,21.2,14.0,74,29.91,10.0,WNW,20.7,31.1,N/A,,Partly Cloudy,300,2013-02-19 05:15:00
11:35 PM,21.2,14.0,74,29.92,10.0,West,23.0,31.1,N/A,,Mostly Cloudy,280,2013-02-19 05:35:00
11:55 PM,19.4,12.2,74,29.93,10.0,WNW,25.3,31.1,N/A,,Scattered Clouds,290,2013-02-19 05:55:00